Regional Weather Roundup
Issued by NWS Cleveland, OH

Home | Current Version | Previous Version | Graphics & Text | Print | Product List | Glossary On
Versions: 1 2 3 4 5 6 7 8 9 10 11 12 13 14 15 16 17 18 19 20 21 22 23 24 25 26 27 28 29 30 31 32 33 34 35 36 37 38 39 40 41 42 43 44 45 46 47 48 49 50
000
ASUS41 KCLE 020702
RWRCLE
OHIO REGIONAL WEATHER ROUNDUP
NATIONAL WEATHER SERVICE CLEVELAND, OH
300 AM EDT SAT AUG 02 2014

NOTE: "FAIR" INDICATES FEW OR NO CLOUDS BELOW 12,000 FEET WITH NO
SIGNIFICANT WEATHER AND/OR OBSTRUCTIONS TO VISIBILITY.

OHZ001>008-015>018-024>027-034-035-043-044-020800-
   NORTHWEST OHIO

CITY           SKY/WX    TMP DP  RH WIND       PRES   REMARKS
DEFIANCE       CLOUDY    67  59  75 CALM      30.09F
FINDLAY        MOCLDY    71  58  63 E7        30.08F
TOLEDO EXPRESS MOCLDY    64  61  90 W3        30.09F FOG
TOLEDO EXEC    PTCLDY    67  59  75 W3        30.09F
LIMA           MOCLDY    67  62  84 N5        30.09F
$$

OHZ009>014-019>023-028>033-038-089-020800-
   NORTHEAST OHIO

CITY           SKY/WX    TMP DP  RH WIND       PRES   REMARKS
CLE-HOPKINS    CLEAR     65  62  90 SE7       30.10F
CLE-LAKEFRONT  CLEAR     71  62  73 SE5       30.07F
CUY CO. ARPT   NOT AVBL
LORAIN-ELYRIA  CLEAR     66  60  81 CALM      30.09S
ASHTABULA      CLEAR     60  58  92 E3        30.10F FOG
AKRON-CANTON   MOCLDY    64  60  87 CALM      30.10S FOG
WOOSTER        CLEAR     61  59  93 CALM      30.10F FOG
MANSFIELD      CLEAR     61  60  97 CALM      30.10F
YOUNGSTOWN     PTCLDY    63  60  90 E5        30.11R
$$

OHZ042-051>053-060>062-070>072-077>081-020800-
  SOUTHWEST OHIO

CITY           SKY/WX    TMP DP  RH WIND       PRES   REMARKS
CINC-COVINGTON MOCLDY    70  62  76 CALM      30.07F
CINC-LUNKEN    PTCLDY    64  63  96 CALM      30.06F FOG
HAMILTON       PTCLDY    63  61  93 W5        30.07F
DAYTON         TSTM      66  62  87 W13G18    30.09F
WRIGHT-PAT AFB PTCLDY    69  63  81 N8        30.07F
DAYTON GENERAL PTCLDY    67  61  81 N8        30.07F
WILMINGTON     CLEAR     62  60  93 CALM      30.07F FOG
$$

OHZ036-037-039>041-045>050-054>059-063>069-073>076-082>088-020800-
  CENTRAL AND SOUTHEAST OHIO

CITY           SKY/WX    TMP DP  RH WIND       PRES   REMARKS
COLUMBUS       MOCLDY    70  62  76 CALM      30.07S
OSU AIRPORT    CLOUDY    66  62  87 CALM      30.08S
BOLTON FIELD   MOCLDY    65  63  93 CALM      30.08S
RICKENBACK AFB PTCLDY    68  60  74 CALM      30.07S
NEWARK         MOCLDY    63  61  93 CALM      30.08S FOG
MARION         PTCLDY    63  60  90 E6        30.09F FOG
LANCASTER      PTCLDY    63  60  90 NW5       30.08F FOG
ZANESVILLE     CLOUDY    67  63  87 CALM      30.09F
NEW PHILLY     PTCLDY    63  62  97 CALM      30.10S FOG
$$



USA.gov is the U.S. government's official web portal to all federal, state and local government web resources and services.